Location: Fort Wayne
(41.1310°N, 85.1290°W)
Time: 17:50:44
(UTC-04:00)

Cosmos 1953 - Visible Passes

Search period start: 18 August 2017 00:00
Search period end: 28 August 2017 00:00
Orbit: 540 x 560 km, 82.5° (Epoch: 17 August)

Date Brightness Start Highest point End Pass type
(mag) Time Alt. Az. Time Alt. Az. Time Alt. Az.
18 Aug 5.4 02:11:09 13° NNE 02:11:09 13° NNE 02:11:36 10° NNE visible
19 Aug 5.5 02:07:08 12° NNE 02:07:08 12° NNE 02:07:28 10° NNE visible
20 Aug 5.5 02:03:06 12° NNE 02:03:06 12° NNE 02:03:21 10° NNE visible
21 Aug 5.6 01:59:03 11° NNE 01:59:03 11° NNE 01:59:13 10° NNE visible
22 Aug 5.6 01:55:00 10° NNE 01:55:00 10° NNE 01:55:03 10° NNE visible
